Showing default

DODGE 1, 2867

Orbit data source: Space-Track

DODGE 1, 2867 is a payload satellite owned by USN NAVAIR (US) in GEO that was launched on Sat, 01 Jul 1967 UTC via a TITAN IIIC launch vehicle from the Air Force Eastern Test Range (AFETR). Payload-class satellites include a variety of spacecraft equipped with specific instruments for various scientific and technological missions. These include communications satellites like Starlink; space stations such as the ISS; scientific satellites like the Hubble; Earth observation satellites from companies like Planet Labs, Umbra, and HawkEye 360; GPS; miniature CubeSats for education and research; and military/defense satellites.

Not visible in the next 10 days
Identifier
2867, 1967-066F
Orbit
GEO
Country
Flag of USUS
Related business
Manufacturer
APL
Mission
Spacecraft
Bus & Motor
DODGE, Unknown motor
Mass
195 kg wet, 195 kg dry
Launch date (UTC)
1967-07-01 (58 years ago)
Launch vehicle
TITAN IIIC
Launch site
Air Force Eastern Test Range (AFETR)
Object type
Payload
Rocket body
Debris
Shape & HBR
Unknown
Radar Cross Section
Large (>1 m²)

Expand to show TLE details & history
Last TLE update: 8 hours ago

TLE from 8 hours ago
0 DODGE 1
1 02867U 67066F   25288.90734491 -.00000072  00000-0  00000-0 0  9990
2 02867   1.9330 106.6350 0054101 178.4270  34.0630  1.09167416130715
Epoch: 2025-10-15T21:46Z
TLE epoch observation values (Epoch: 2025-10-15T21:46:34.600Z)
Latitude
-1.02995°
Longitude
-31.87609°
Altitude
33,285.825 km
Speed
3.177 km/s
True Right ascension
21h 17m 46s
True Declination
-1° 01' 44"
Sunlit
Object was in daylight at epoch
Visualization orbit readout
Latitude
Unknown
Longitude
Unknown
Altitude
Unknown
Speed
Unknown
Apparent Right ascension
Unknown
Apparent Declination
Unknown
Sunlit
N/A
Visualization observer readout
Local Sidereal Time
00:40:31
Azimuth
Unknown
Elevation
Unknown
Doppler factor
Unknown
Orbital elements
Apogee altitude
33,680.425 km
Perigee altitude
33,249.316 km
Semi-major axis
39,843.008 km
Eccentricity
0.00541
Inclination
1.933°
RAAN
106.635°
Arg. of periapsis
178.427°
True anomaly
34.41219°
Mean anomaly
34.063°
Eccentric anomaly
34.2374°
Mean motion
0.27291 °/min
Orbital period
1,319.13 mins
BSTAR
0
Loading maneuver chart data...
Computing Atmospheric mass density...
Loading historical data...
Loading historical data...
Loading historical data...
Loading historical data...
Loading historical data...
Loading historical data...
Loading historical data...

Documentation

Showing up to 5 results
|